Find NNS 30480-37

NORAD ID: 12458 Int'l Des: 1981-044 Owner: NAVAIR Country: US operational
LEOCIRCULARPOLARONEWEB_TYPE

リアルタイム位置

3D地球を読み込み中...

NNS 30480-37について

説明を読み込み中...

次回通過

Passes for default location (London). Set your location on the main map for personalized predictions.

高度履歴

Loading altitude history...

軌道要素

1 12458U 81044A 26139.63576094 .00000073 00000-0 15175-3 0 9990
2 12458 89.8470 89.0530 0015575 35.3858 138.3614 13.23296050172746
Epoch: May 19, 2026 • Age: 10 hours

現在のステータス

高度 1180.2 km
速度 7.27 km/s
衛星直下点 85.30°N, 3.25°E
打ち上げ日 May 15, 1981
運用期間 45 years
タイプ other

技術仕様

分類 Payload
質量 165.00 kg
乾燥質量 138.00 kg
総質量 165.00 kg
長さ 1.20 m
直径 0.50 m
スパン 79.00 m
形状 Cyl + 4 Pan + Ant
製造者 RCA
バスタイプ Nova
フェーズステータス In Orbit
所有者/国 NAVAIR/US

Most Searched